Theta_e
345 348 351 345 350 349 349 349 345 347 345 341 342 344 344 344 346 346 337 337 337 334 332 334 336 336 332 329 332 333 333 333 334 333 335 331 334 336 335 336 336 337 335 334 333 334 333 334 336
346 348 348 344 348 350 349 347 346 345 344 342 344 344 345 347 344 342 341 337 336 334 332 332 336 330 334 330 331 332 332 331 332 333 335 339 340 340 339 338 337 337 337 337 335 335 339 340 341
349 348 344 344 346 354 347 347 346 344 345 344 344 344 345 346 346 345 340 337 336 335 332 334 337 336 331 328 329 329 331 333 335 336 338 341 341 342 339 339 342 341 340 340 339 339 341 342 343
348 350 347 345 351 349 348 346 345 345 344 344 344 345 345 345 344 344 344 338 337 334 333 336 340 338 333 329 331 334 336 337 338 339 340 339 340 341 342 341 340 339 337 337 336 339 341 343 343
348 346 349 352 352 350 348 345 344 345 344 345 345 347 347 346 344 345 340 337 334 331 334 339 337 337 332 334 335 337 338 338 338 340 340 339 341 339 338 338 337 336 337 334 335 337 341 343 343
343 345 351 354 352 349 347 347 344 344 345 346 347 347 347 346 344 345 343 338 333 330 334 324 325 336 334 334 336 337 337 338 341 342 341 340 338 339 339 337 337 337 330 329 330 338 342 344 346
343 346 352 348 349 349 349 348 346 346 344 345 345 346 346 345 343 343 344 337 334 334 327 327 329 338 337 336 336 335 339 337 339 341 341 341 335 337 338 332 329 330 330 326 330 340 344 345 344
342 344 350 347 348 347 348 348 345 345 346 343 342 347 346 344 340 343 339 338 335 334 327 335 334 335 336 336 335 332 332 333 331 338 339 340 337 331 330 327 324 323 323 323 325 334 341 345 344
340 347 350 349 349 348 348 348 348 345 344 342 343 344 345 344 344 344 343 338 335 331 329 336 336 335 332 332 334 332 332 330 327 331 334 335 334 332 330 326 325 324 322 323 325 330 335 339 341
343 347 346 344 345 347 342 346 347 346 343 342 342 344 345 344 344 345 343 338 334 332 334 335 336 331 337 336 333 334 329 338 337 338 339 336 337 331 331 332 344 345 343 337 337 337 338 339 339
346 345 344 343 344 344 344 344 346 347 344 342 345 345 344 344 343 345 344 342 337 338 334 335 333 334 336 332 336 339 343 346 346 345 340 336 338 332 332 339 340 345 346 346 344 346 346 344 340
347 349 344 345 344 344 343 342 348 345 343 342 343 344 344 343 344 344 344 342 340 338 339 337 334 337 334 331 341 343 345 345 345 344 339 335 336 337 339 340 341 344 346 345 344 346 345 345 344
339 345 348 345 345 343 343 344 347 346 344 343 342 343 342 343 343 344 343 343 342 339 340 339 338 338 334 338 337 338 342 344 343 343 340 341 342 343 344 343 343 343 344 345 346 343 343 342 341
338 346 348 346 346 345 346 346 347 345 344 343 343 342 342 343 342 343 343 343 341 339 338 338 338 336 341 340 341 338 342 343 342 344 345 344 345 344 342 342 344 343 344 345 344 344 344 344 341
346 346 347 349 347 347 345 345 345 344 344 343 342 343 342 342 342 343 344 344 342 341 340 342 340 339 342 342 342 342 343 338 343 345 345 344 343 344 343 344 344 346 344 347 345 346 345 338 341
346 349 352 348 344 347 346 346 342 343 345 343 343 343 343 341 344 344 343 345 343 342 340 339 340 339 340 342 342 343 342 340 341 343 344 344 342 340 343 343 345 344 343 343 343 345 344 341 339
349 351 350 350 345 342 348 348 342 341 344 344 343 344 343 343 344 345 345 344 344 344 344 340 340 339 341 340 342 342 342 341 340 340 341 342 341 343 343 342 344 340 342 344 345 346 343 341 341
348 350 347 349 346 344 350 350 345 341 344 345 343 344 344 344 344 344 344 344 344 344 341 341 338 339 338 340 341 342 344 343 341 337 338 339 342 342 342 343 340 341 344 345 345 345 342 340 341
334 344 349 343 347 352 351 350 347 341 341 344 344 342 344 343 344 345 344 344 344 343 341 341 339 334 337 339 341 343 345 343 341 342 342 340 337 341 344 341 341 340 342 343 344 346 345 347 345
327 349 351 347 348 350 351 352 348 341 341 341 345 344 343 344 345 345 345 345 344 344 343 343 344 341 338 342 341 344 344 341 342 343 345 345 342 338 341 339 339 341 341 342 345 345 344 347 345
329 348 349 345 340 349 350 351 350 343 342 342 343 345 344 343 342 344 346 345 344 344 343 343 343 340 341 342 343 342 342 342 342 344 345 342 340 341 344 345 342 336 341 344 344 343 344 347 344
337 343 340 343 342 343 346 347 352 347 343 341 341 345 345 345 344 345 346 344 344 344 343 342 342 341 340 341 343 342 342 343 341 343 342 343 342 343 344 346 343 339 340 342 342 345 346 345 345
332 338 338 343 342 335 335 344 341 349 349 345 341 343 345 345 344 346 346 345 345 344 343 342 342 342 341 340 340 340 341 341 341 342 342 343 341 342 342 343 340 339 339 341 345 346 344 343 347
327 333 331 331 330 335 337 342 345 350 348 347 343 340 343 345 345 345 345 345 345 344 343 342 342 342 342 341 340 341 343 342 342 343 342 343 344 342 341 346 340 337 336 343 340 343 343 342 345
322 322 325 336 337 337 334 340 344 343 341 342 345 342 341 342 345 344 346 345 346 346 344 343 344 343 342 340 340 342 342 344 344 344 343 342 343 343 344 342 345 338 336 338 339 344 342 341 340
325 321 322 331 334 333 334 342 345 340 337 339 341 345 343 341 341 342 344 344 343 347 346 344 343 340 339 341 342 343 342 343 344 344 340 343 344 343 344 343 345 344 338 336 336 335 336 343 342
323 320 321 323 325 333 338 341 341 335 336 339 341 341 342 340 341 341 343 343 343 345 347 346 344 341 339 338 340 344 341 344 346 346 343 343 341 343 345 346 345 344 345 341 341 338 336 338 340
322 320 323 328 338 340 343 345 339 336 338 338 338 338 342 343 342 341 342 344 343 342 345 346 345 344 340 341 341 342 344 343 343 345 346 344 346 345 347 346 347 346 345 343 346 348 345 340 339
328 329 330 331 332 337 340 339 337 337 337 336 336 334 336 341 344 343 341 341 344 345 346 347 346 346 345 342 342 340 344 342 343 345 347 347 344 345 347 346 347 347 346 346 349 348 349 347 342
329 332 326 329 336 334 335 334 337 337 337 333 334 333 337 340 347 343 342 341 344 344 344 346 347 346 346 343 340 340 340 343 343 343 343 345 346 344 347 345 347 347 348 345 345 346 344 345 346
Wind_Speed
1 3 3 2 3 4 4 3 13 15 9 8 14 5 10 5 2 4 22 21 25 22 21 19 19 19 19 18 18 19 19 21 19 15 15 16 16 15 16 17 17 19 19 20 21 20 20 20 20
3 2 4 1 5 3 2 12 19 12 15 24 22 22 12 5 16 26 24 25 23 21 21 20 19 20 21 20 17 19 20 19 19 17 17 16 16 16 17 18 18 17 18 20 20 19 20 21 22
3 0 3 3 3 1 3 10 15 16 25 20 10 17 8 12 25 29 24 27 22 22 20 19 20 23 23 23 21 17 17 18 17 17 17 17 17 18 19 19 18 18 19 19 19 20 21 19 17
7 1 4 4 3 3 3 9 29 28 24 23 20 12 14 15 29 24 24 27 25 23 21 19 19 21 22 22 20 19 18 17 17 17 18 18 17 19 19 20 19 18 19 20 19 21 19 20 23
10 4 4 4 6 7 10 11 24 12 9 22 26 10 19 17 27 28 29 25 24 24 22 20 18 22 21 20 19 18 17 17 17 17 17 17 18 18 19 17 17 17 17 19 20 19 19 18 17
7 4 4 3 7 8 11 14 24 18 23 26 22 16 6 33 30 28 25 22 22 24 22 21 22 21 20 18 18 18 18 17 17 17 18 18 18 17 18 16 15 16 16 18 19 20 17 19 19
7 3 2 3 6 6 5 17 19 21 18 15 26 6 18 35 30 27 22 23 23 23 23 23 24 20 18 18 17 17 16 16 16 16 17 17 18 17 17 16 17 18 18 19 19 21 18 18 17
5 2 5 4 1 7 9 9 20 29 9 24 34 9 17 33 29 27 25 21 20 22 21 22 22 20 19 18 17 16 17 17 17 17 15 16 17 17 17 18 17 19 19 20 19 19 19 18 18
8 3 1 8 9 5 6 8 6 2 26 24 9 32 36 36 30 29 27 23 23 20 20 19 20 20 19 19 18 19 18 18 19 18 16 16 17 17 18 19 21 21 21 22 21 20 19 18 18
2 2 7 9 8 2 6 12 10 7 27 13 28 34 38 32 33 36 31 29 20 21 21 19 19 20 18 18 19 20 21 22 21 19 17 15 16 17 18 20 21 21 22 21 20 18 16 15 13
7 4 5 8 17 7 7 7 4 10 9 31 37 47 38 35 34 38 32 20 23 21 24 20 20 19 18 19 22 23 22 18 16 15 15 17 17 17 18 19 17 16 15 14 12 12 9 7 10
3 7 7 14 13 13 8 2 6 16 23 29 36 39 39 42 38 35 34 27 29 24 22 21 20 19 18 19 22 20 19 17 13 13 13 16 17 18 17 13 10 9 9 9 9 8 9 6 5
17 12 16 14 10 13 14 10 2 9 22 27 27 36 35 36 32 28 27 27 23 22 23 23 22 20 19 16 18 19 17 15 11 15 13 14 13 8 9 10 8 7 8 6 9 10 10 9 5
19 17 11 17 10 14 10 4 3 6 23 27 20 33 33 32 28 31 25 27 24 27 18 23 22 22 22 19 18 22 19 18 15 12 9 10 9 10 8 6 7 8 4 7 9 8 6 6 7
18 9 6 9 12 10 14 5 5 3 16 25 28 32 31 25 20 27 28 27 21 22 23 23 21 24 20 18 21 21 16 18 16 12 14 14 12 11 8 7 7 6 9 5 5 4 5 6 6
8 6 4 4 6 9 8 4 4 8 15 17 32 33 29 24 25 28 31 26 24 21 20 22 22 17 20 18 20 17 18 18 13 14 14 13 12 15 12 11 8 6 5 5 6 4 4 6 9
6 5 2 2 9 3 4 4 6 11 12 8 24 29 30 27 25 30 28 26 22 18 18 23 24 25 24 16 19 21 21 17 13 13 12 16 16 14 11 13 11 7 5 4 8 6 7 8 8
6 7 7 4 4 4 9 8 3 12 14 10 19 24 30 31 30 31 29 24 21 17 15 16 22 24 19 24 21 18 18 18 13 9 12 16 14 14 10 10 9 8 7 4 10 8 11 8 4
6 3 8 2 5 5 10 7 9 13 17 15 17 20 25 31 29 28 28 26 23 22 20 23 21 22 22 27 21 13 21 19 14 11 10 8 12 12 10 12 11 9 9 8 7 6 9 7 3
9 11 1 3 7 7 4 13 5 15 15 24 23 22 26 24 24 30 30 29 27 25 22 23 23 20 25 27 24 17 20 17 15 10 11 8 10 11 9 9 11 8 12 4 9 10 8 3 3
6 9 6 5 3 3 4 4 5 5 11 21 22 24 22 24 20 28 28 33 30 26 23 23 23 23 25 26 21 20 21 17 16 15 13 9 10 11 10 4 6 7 9 12 16 14 9 5 4
3 19 14 14 6 4 9 4 4 5 9 14 23 25 22 24 26 27 28 35 32 27 24 23 24 24 26 25 26 22 23 19 19 18 12 9 13 15 12 5 3 4 7 12 14 10 9 6 7
5 14 15 12 6 3 3 2 5 7 7 13 20 25 28 29 27 27 33 35 35 29 28 25 24 25 24 24 28 24 24 19 17 15 11 9 10 13 13 7 6 9 13 14 9 7 7 9 6
4 2 7 6 3 3 3 4 4 2 6 6 13 23 32 31 28 29 36 32 35 33 31 25 26 27 26 29 29 27 22 20 21 19 16 13 11 9 15 11 8 8 10 14 8 6 6 8 12
8 6 3 3 3 5 6 3 5 4 10 10 12 24 33 35 33 27 35 30 30 36 34 27 26 28 30 32 32 29 24 22 22 21 20 18 13 13 14 12 9 9 12 11 12 8 7 9 7
3 8 5 4 4 6 2 3 1 5 16 22 26 12 28 34 36 36 35 35 30 34 34 30 28 27 32 34 35 29 29 25 23 20 19 20 17 14 12 12 12 9 10 11 12 11 11 11 10
4 2 5 5 3 4 4 5 5 8 14 19 22 23 13 10 31 35 36 28 35 34 33 34 30 27 35 37 35 31 32 29 25 18 19 16 14 16 16 14 14 12 9 12 11 10 12 13 12
3 1 3 4 2 1 4 3 4 5 7 9 15 18 23 13 15 31 36 32 31 35 31 36 31 29 30 35 33 33 32 31 28 21 24 22 17 16 15 16 20 15 11 13 14 11 8 11 15
5 3 6 6 3 4 1 5 2 3 2 3 9 17 23 16 11 27 34 32 34 33 32 36 34 33 29 31 33 34 33 31 31 26 26 22 20 19 15 11 16 17 15 14 15 13 12 11 13
4 4 5 5 3 1 3 5 7 7 4 5 11 20 15 11 12 19 34 38 33 31 33 35 35 35 32 25 30 34 36 33 30 30 29 27 22 21 19 18 17 18 16 15 16 16 16 16 15
Wind_Direction
55 323 344 70 72 52 63 47 119 108 143 209 117 158 138 67 131 155 147 148 152 139 132 137 138 132 124 121 124 125 123 119 120 136 125 124 124 123 125 120 118 115 111 109 111 114 116 115 115
200 282 336 79 76 51 123 129 91 95 101 127 102 94 57 73 104 133 149 150 147 141 139 138 132 127 122 114 117 126 126 131 133 131 125 122 120 120 122 121 117 116 116 115 119 120 119 118 118
82 276 326 55 88 338 65 107 110 122 117 122 104 77 94 113 124 143 147 155 155 149 146 146 138 129 123 118 119 121 127 129 132 131 125 125 120 121 120 122 121 122 121 124 128 131 124 123 116
12 67 40 69 356 33 39 125 115 110 99 114 108 86 100 145 145 148 144 153 151 148 151 150 139 137 139 143 147 137 133 132 131 131 127 126 120 121 121 121 121 123 126 126 132 136 130 118 119
20 21 52 48 12 352 337 149 123 112 122 120 122 117 128 157 143 142 145 147 149 145 147 145 149 139 141 141 137 135 131 129 131 131 130 128 124 123 125 122 122 124 121 128 138 141 134 123 122
47 17 32 37 9 345 300 342 101 93 117 122 115 122 105 149 144 154 145 144 147 144 145 143 143 143 141 140 139 136 132 129 129 131 126 127 127 125 125 124 122 122 125 126 136 141 132 115 114
104 45 88 14 6 343 282 338 106 108 127 136 129 95 142 149 150 149 148 149 148 145 145 143 145 145 143 144 141 136 133 135 130 127 125 126 125 122 126 120 120 119 121 125 137 141 135 125 123
98 97 127 103 303 271 290 326 154 138 154 140 128 146 162 161 151 143 138 137 151 146 147 147 149 147 145 146 137 134 133 132 137 132 127 124 123 117 115 111 113 113 116 120 128 139 138 134 138
93 40 243 160 167 230 256 52 141 179 131 152 169 156 149 148 148 140 140 144 149 148 149 151 150 148 148 144 139 138 136 133 131 128 122 119 117 113 110 109 106 105 108 116 119 127 132 130 129
139 215 213 172 157 238 308 34 340 150 152 139 121 149 149 155 154 153 153 144 144 155 152 155 155 152 149 146 143 140 135 125 120 116 114 120 116 110 113 116 109 101 100 104 111 116 123 122 120
152 223 180 146 134 125 349 325 291 198 152 145 143 149 156 161 167 167 164 154 156 152 151 157 156 153 151 148 145 137 133 127 128 123 109 122 121 120 122 123 107 100 101 105 106 113 119 129 129
357 281 141 145 170 149 191 227 271 155 153 159 149 154 158 162 162 165 166 163 161 163 171 162 157 154 152 152 152 145 141 136 142 133 123 121 126 128 117 123 116 101 99 97 116 111 100 105 151
85 292 134 157 165 131 161 207 302 155 163 152 151 155 157 157 162 164 167 165 168 169 164 166 156 150 152 156 160 164 152 141 144 149 139 130 129 135 147 130 115 107 105 84 97 111 100 86 91
171 214 129 142 156 157 171 255 293 143 156 164 163 163 165 156 155 162 176 170 175 169 172 169 165 168 163 162 160 153 152 153 155 150 160 163 142 147 149 144 105 105 110 95 93 106 107 109 77
154 141 67 122 175 175 195 232 163 133 184 183 172 169 171 168 176 189 184 179 174 171 167 171 173 178 178 183 167 158 152 157 159 166 154 161 150 171 176 174 176 148 142 133 169 147 204 132 156
159 169 119 222 282 167 176 239 178 105 151 169 168 165 161 158 169 170 180 181 179 176 160 176 188 180 191 188 180 174 157 161 172 168 162 172 182 187 182 170 168 172 182 201 177 157 185 150 178
194 117 45 218 215 205 169 246 208 138 131 98 157 169 166 170 178 179 186 185 182 184 178 180 193 194 187 175 178 164 162 167 153 167 178 179 187 188 193 179 179 181 183 211 186 181 179 168 149
166 146 210 212 171 183 200 234 260 182 148 137 149 153 161 167 176 181 186 187 180 181 187 173 178 176 192 158 160 172 190 178 158 177 176 191 203 199 185 182 180 181 195 224 155 160 190 155 196
223 185 117 203 162 184 219 220 205 170 176 170 182 174 167 172 175 179 189 190 183 181 175 180 171 181 175 183 180 173 161 164 174 180 163 173 198 198 212 222 196 189 183 194 179 160 139 128 160
268 136 74 326 187 177 187 235 178 178 196 189 185 191 174 169 174 185 194 191 189 191 187 188 179 179 175 172 172 176 171 175 193 192 193 205 208 212 206 206 178 174 193 198 208 187 169 125 98
252 145 151 246 151 281 20 249 176 191 193 197 199 197 196 194 185 188 185 191 196 196 196 189 181 176 175 178 183 180 184 190 192 188 196 206 214 210 195 169 144 187 192 187 200 201 189 174 155
177 144 134 246 139 208 153 270 240 195 192 183 198 197 203 193 189 190 192 193 199 202 201 205 196 187 182 189 194 190 188 193 197 199 211 223 216 215 204 197 168 202 179 191 191 196 193 178 165
187 159 183 193 177 76 1 90 260 170 207 211 196 200 200 196 188 188 195 198 201 201 201 202 203 198 191 190 195 190 191 203 212 213 210 212 187 203 211 225 229 182 186 179 167 185 197 186 201
129 125 34 50 94 30 252 165 283 67 307 268 203 195 208 206 198 193 189 196 199 201 201 204 205 204 200 193 196 192 202 206 209 217 210 215 198 208 215 220 217 205 183 182 186 191 189 189 195
69 67 358 20 29 218 210 97 234 336 33 1 204 199 206 211 206 205 190 195 206 207 205 203 206 206 199 197 196 197 200 211 209 218 205 219 212 203 207 225 223 212 205 201 207 215 218 212 207
172 151 155 192 191 238 274 190 194 81 30 33 34 225 208 206 215 212 201 214 207 213 208 207 206 203 198 197 195 200 203 214 215 209 207 215 217 210 202 216 218 228 219 224 229 235 236 238 232
291 29 183 130 37 83 302 304 113 32 26 29 29 23 18 234 222 213 213 209 213 211 213 210 209 201 194 195 195 202 206 215 216 214 213 217 209 208 209 222 214 209 219 218 222 230 233 232 239
144 186 30 18 110 128 309 294 241 350 8 23 31 13 352 300 232 226 215 219 215 219 219 208 213 207 208 204 207 208 211 216 214 213 212 219 214 218 234 249 235 229 235 219 224 226 229 238 232
1 41 62 106 105 153 181 261 166 164 249 80 60 32 8 349 268 222 229 224 218 214 214 210 212 214 212 215 213 213 212 214 211 211 210 217 229 230 217 215 211 221 225 223 229 235 242 249 238
159 145 117 121 205 136 145 271 163 139 141 342 39 18 37 8 324 227 222 237 228 217 219 215 215 219 217 217 220 217 216 217 218 215 216 221 229 228 228 230 219 223 236 236 247 249 251 247 249